CAPE
0 0 0 0 0 0 0 0 0 0 0 0 0 0 0 0 0 0 0 0 0 0 0 0 2 565 1376 1491 1557 1428 1470 1670 1457 1456 1484 1723 1709 1644 1373 1440 1328 1282 1445 1526 1515 1578 1414 1240 1380 1560 1402 1390 1138 1250 1465 1412 1527 1590 1709 1733 2074 2378 2447 2120 1873 1824 2124 2176 2302 2371 2377 2356 2444 2341 2407 2558 2462 2288 2277 2402 2164 2132 1934 1911 1803 1481
0 0 0 0 0 0 0 0 0 0 0 0 0 0 0 0 0 0 0 0 0 0 0 0 2 510 1738 1539 1379 1218 1180 1442 1291 1266 1688 1561 1685 2384 1647 1421 1370 1179 990 1200 824 1413 1490 1330 1192 1422 1287 1339 1397 1428 1398 1546 1491 1708 1984 1898 1971 2160 2496 2346 2198 2234 2406 2261 2416 2372 2321 2305 2172 2189 1952 2299 2232 2125 2233 2400 2435 2441 1982 1931 2088 1917
0 0 0 0 0 0 0 0 0 0 0 0 0 0 0 0 0 0 0 0 0 0 0 11 290 556 1760 1648 1383 1211 1161 787 928 1447 1855 1432 1366 1354 1459 1227 1020 825 1121 1065 1495 1414 1264 1232 1219 1102 1217 1339 1364 1181 1415 1450 1527 1843 1973 1919 1926 2022 2171 2049 2227 2276 2277 2318 2442 2221 2060 1919 1726 1514 1469 1767 1482 1490 1394 1702 1807 1990 1955 1705 1659 1673
0 0 0 0 0 0 0 0 0 0 0 0 0 0 0 0 0 0 0 0 0 0 4 0 141 412 1424 1456 1502 1207 1175 1566 1785 1644 1808 1725 1443 1406 1272 1076 838 728 768 942 1232 1452 1353 1167 1179 1176 1063 1125 1156 1251 1402 1374 1404 1469 1511 1687 1517 1708 1673 1716 1782 1584 1640 1872 1933 1662 1730 1582 1543 1422 1248 1263 1102 1306 1266 1370 1404 1339 1288 1282 1206 1210
0 0 0 0 0 0 0 0 0 0 0 0 0 0 0 0 0 0 0 0 0 0 6 95 336 394 999 1353 1300 1198 1255 1538 1685 1721 1537 1532 1517 1250 1226 922 1346 1268 932 536 618 1069 972 934 912 1136 1136 1222 1186 1039 1214 1162 1161 1353 1328 1355 1513 1493 1616 1489 1594 1567 1732 1666 1857 1466 1366 1378 1329 1274 1161 1150 1025 1055 1040 1226 1397 1327 1299 1229 1161 1082
0 0 0 0 0 0 0 0 0 0 0 0 0 0 0 0 0 0 0 0 0 0 0 0 0 70 498 849 1135 1172 1214 1340 1390 1441 1293 1288 1339 1433 1270 1290 1562 1277 995 596 608 711 769 941 966 1020 1052 1003 1029 945 1001 999 1224 1313 1331 1322 1440 1491 1498 1431 1456 1408 1394 1460 1526 1339 1389 1046 1106 880 936 980 1030 1042 1047 994 1274 1153 998 1048 1034 970
0 0 0 0 0 0 0 0 0 0 0 0 0 0 0 0 0 0 0 0 0 0 0 11 0 118 347 574 1040 1269 1289 1216 1310 1364 1469 1417 1332 1456 1251 1342 1509 1053 1016 708 596 696 754 980 819 821 881 918 896 861 791 903 1039 1121 1177 1213 1282 1199 1184 1090 1128 1276 1267 1164 1301 1254 1010 977 886 928 873 708 758 1031 864 896 952 760 614 569 665 702
0 0 0 0 0 0 0 0 0 0 0 0 0 0 0 0 0 0 0 0 0 0 0 0 0 150 77 462 955 1214 1190 1177 1234 1296 1328 1541 1454 1205 1332 1395 1478 1114 1084 975 811 830 805 738 754 699 838 855 709 682 628 588 728 766 818 923 918 749 703 845 950 922 1031 1058 951 724 600 563 572 696 602 583 543 502 477 493 487 492 325 255 319 287
0 0 0 0 0 0 0 0 0 0 0 0 0 0 0 0 0 0 0 0 0 0 0 0 0 0 1 395 701 1172 1226 1005 1230 1394 1427 1265 1527 1591 1453 1408 1525 1137 1229 1094 920 932 937 766 682 580 688 686 669 730 692 672 606 498 707 716 674 623 640 651 612 704 712 746 731 636 547 471 341 422 303 232 187 266 218 378 172 209 224 155 128 106
0 0 0 0 0 0 0 0 0 0 0 0 0 0 0 0 0 0 0 0 0 0 0 0 0 0 0 646 778 962 672 1158 1240 1291 1324 1286 1299 1639 1404 1451 1355 1316 1282 1056 1001 976 882 759 646 539 618 702 668 600 560 443 364 361 375 385 360 452 429 321 397 455 460 465 469 562 627 540 388 322 276 237 165 287 360 236 183 161 78 43 45 17
0 0 0 0 0 0 0 0 0 0 0 0 0 0 0 0 0 0 0 0 0 0 0 0 0 0 0 307 523 653 480 833 1268 1329 1319 1302 1365 1491 1489 1526 1064 1019 968 855 969 984 851 742 581 532 504 693 568 514 425 376 393 405 354 366 392 488 468 360 338 134 156 157 224 312 358 323 314 287 297 292 77 75 93 52 18 25 12 12 11 11
0 0 0 0 0 0 0 0 0 0 0 0 0 0 0 0 0 0 0 0 0 0 0 0 0 0 0 123 42 158 391 550 1129 1284 1266 1193 1257 1399 1392 1106 645 604 547 611 958 940 734 716 569 606 632 631 515 686 674 561 478 397 368 353 405 374 318 297 327 303 107 6 10 19 10 8 12 10 9 6 5 5 6 5 6 7 7 7 8 8
0 0 0 0 0 0 0 0 0 0 0 0 0 0 0 0 0 0 0 0 0 0 0 0 0 0 0 0 61 83 209 266 812 1249 1404 1262 1219 1322 982 808 592 479 475 744 931 869 747 675 649 644 640 585 426 628 606 465 425 370 386 332 279 64 4 3 254 252 286 296 279 143 268 285 70 5 5 5 5 5 5 7 5 5 5 6 5 7
0 0 0 0 0 0 0 0 0 0 0 0 0 0 0 0 0 0 0 0 0 0 0 0 0 0 0 42 83 0 248 432 664 1223 1322 1242 1207 929 941 761 600 463 611 828 964 923 702 643 507 534 585 576 413 480 500 510 428 321 154 149 114 2 3 3 4 4 5 329 367 382 412 441 380 329 322 323 4 4 4 4 5 4 5 6 8 7
0 0 0 0 0 0 0 0 0 0 0 0 0 0 0 0 0 0 0 0 0 0 0 0 0 0 0 16 472 992 387 719 999 1112 1133 1190 836 984 894 737 541 609 757 958 936 871 717 520 552 505 346 543 491 501 438 356 316 285 271 262 256 106 341 272 128 4 5 5 8 240 375 485 489 477 404 292 171 5 4 5 5 5 5 5 5 6
0 0 0 0 0 0 0 0 0 0 0 0 0 0 0 0 0 0 0 0 0 0 0 0 0 4 549 336 437 422 846 932 855 851 1010 979 950 964 936 792 594 681 825 850 794 732 557 476 597 533 526 612 617 617 524 468 422 344 103 299 334 464 484 405 300 59 6 5 172 389 448 542 504 404 211 94 4 5 6 6 4 6 6 4 5 6
0 0 0 0 0 0 0 0 0 0 0 0 0 0 0 0 0 0 0 0 0 0 0 0 0 19 463 667 430 480 560 771 857 892 765 761 926 993 889 826 702 611 690 710 680 613 496 684 718 632 604 705 774 702 579 477 418 400 380 345 330 399 444 443 349 208 6 8 272 391 400 360 335 177 7 6 6 6 5 6 7 4 4 5 5 5
0 0 0 0 0 0 0 0 0 0 0 0 0 0 0 0 0 0 0 0 0 0 0 0 0 6 4 128 455 507 732 842 937 774 740 736 774 915 876 828 791 688 805 786 632 648 631 673 800 771 833 874 845 764 648 548 499 369 224 52 210 237 234 60 3 3 6 72 265 265 265 162 10 10 11 10 6 6 4 4 5 5 4 4 4 4
0 0 0 0 0 0 0 0 0 0 0 0 0 0 0 0 0 0 0 0 0 0 0 0 0 2 0 436 419 447 572 851 840 688 661 694 757 775 773 854 911 825 852 865 569 446 523 609 712 840 894 856 778 759 699 711 628 466 258 110 0 0 0 0 1 2 29 136 148 155 97 7 7 8 7 8 7 5 4 4 4 4 3 3 3 2
0 0 0 0 0 0 0 0 0 0 0 0 0 0 0 0 0 0 0 0 0 0 0 0 0 0 0 756 422 561 789 917 813 670 611 570 543 569 589 780 1000 990 798 730 554 242 209 291 674 615 724 871 855 780 828 751 626 510 375 254 146 69 0 57 24 3 4 4 5 6 6 4 4 5 6 7 5 4 4 2 4 4 3 4 2 2
0 0 0 0 0 0 0 0 0 0 0 0 0 0 0 0 0 0 0 0 0 0 0 17 0 0 0 339 566 876 996 1022 762 745 647 464 534 534 618 803 905 838 745 705 603 486 200 193 103 490 786 910 824 811 836 780 570 508 486 334 221 142 164 148 121 4 125 139 162 71 5 5 6 6 4 3 5 2 2 2 3 3 3 2 0 0
0 0 0 0 0 0 0 0 0 0 0 0 0 0 0 0 0 0 0 0 0 0 0 0 0 0 101 400 514 731 1142 1132 940 758 636 521 486 623 689 737 759 779 680 669 654 568 458 211 630 522 740 831 815 831 793 675 577 674 533 349 237 193 189 182 146 3 11 156 13 4 7 7 4 3 4 5 3 2 1 1 1 0 0 0 0 0
0 0 0 0 0 0 0 0 0 0 0 0 0 0 0 0 0 0 0 0 0 0 0 0 0 177 567 455 997 728 1152 1184 909 716 588 547 562 623 760 818 789 720 653 698 674 691 618 277 270 586 658 744 775 788 727 673 632 644 573 349 240 200 192 160 137 80 5 3 4 4 4 4 4 4 5 5 4 1 0 0 0 0 0 0 0 0
0 0 0 0 0 0 0 0 0 0 0 0 0 0 0 0 0 0 0 0 0 0 0 0 0 254 156 473 751 1228 1153 974 970 750 552 484 630 687 707 772 818 725 704 732 594 366 306 370 324 651 620 670 696 731 656 602 574 573 393 250 233 219 161 147 129 46 4 4 6 6 5 4 4 4 4 1 0 0 0 0 0 0 0 0 0 0
0 0 0 0 0 0 0 0 0 0 0 0 0 0 0 0 0 0 0 0 0 0 0 0 0 0 636 91 616 1075 843 763 855 744 455 478 570 737 827 855 843 829 824 828 732 498 684 526 523 671 618 653 642 424 595 546 472 393 92 100 225 187 175 157 120 23 5 5 6 5 4 6 4 3 1 0 0 0 0 0 0 0 0 0 0 0
0 0 0 0 0 0 0 0 0 0 0 0 0 0 0 0 0 0 0 0 0 0 0 0 0 634 272 354 419 764 732 784 583 452 404 473 518 700 845 877 897 902 884 870 837 819 801 768 543 578 635 658 696 653 562 486 432 275 68 84 215 196 179 161 104 4 3 5 4 4 4 3 4 0 0 0 0 0 0 0 0 0 0 0 0 0
0 0 0 0 0 0 0 0 0 0 0 0 0 0 0 0 0 0 0 0 0 0 0 0 0 362 507 347 441 669 704 683 504 306 312 413 465 636 777 880 942 950 891 830 876 738 522 723 565 346 424 587 596 570 503 407 322 108 56 224 210 207 171 131 28 5 3 3 4 2 3 0 0 0 0 0 0 0 0 0 0 0 0 0 0 0
0 0 0 0 14 4 0 0 0 0 0 0 0 0 0 0 0 0 0 0 0 0 0 0 0 42 438 570 588 591 603 591 294 232 244 345 449 531 668 745 779 840 871 886 901 802 545 323 322 384 392 615 624 601 482 374 104 65 91 242 197 170 119 6 4 3 2 2 2 0 0 0 0 0 0 0 0 0 0 0 0 0 0 0 0 0
0 0 0 0 0 12 28 0 0 0 0 0 0 0 0 0 0 0 0 0 0 0 0 0 0 0 269 728 730 747 690 615 343 238 236 305 384 446 458 560 687 798 903 859 865 813 747 536 277 289 386 400 636 494 187 41 46 173 226 183 175 130 89 12 3 2 0 2 0 0 0 0 0 0 0 0 0 0 0 0 0 0 0 0 0 0
0 0 0 0 0 6 23 14 0 0 0 0 0 0 0 0 0 0 0 0 0 0 0 1 0 0 0 679 829 848 746 496 327 170 227 335 393 514 634 600 579 690 759 761 692 508 486 385 380 404 446 521 536 291 101 168 216 231 190 149 129 86 4 14 22 2 0 0 0 0 0 0 0 0 0 0 0 0 0 0 0 0 0 0 0 0
0 3 0 0 0 0 22 0 12 0 0 0 0 0 0 0 0 0 0 0 0 0 0 0 0 0 801 1178 865 869 571 482 94 39 287 312 302 365 513 720 829 834 841 898 906 320 267 330 417 476 463 525 324 211 108 188 237 180 138 39 24 14 18 10 0 0 0 0 0 0 0 0 0 0 0 0 0 0 0 0 0 0 0 0 0 0
0 17 0 0 0 1 10 2 2 35 11 0 0 0 0 0 0 0 0 0 0 0 0 0 0 0 951 1013 830 608 409 197 88 48 218 282 343 378 420 484 625 739 848 862 743 679 500 374 472 617 473 183 171 68 69 142 134 88 11 4 3 9 8 1 0 0 0 0 0 0 0 0 0 0 0 0 0 0 0 0 0 0 0 0 0 0
0 0 0 0 0 0 27 8 15 52 35 2 0 0 0 0 0 0 1 10 0 0 0 0 0 0 726 836 619 490 330 147 104 28 187 250 385 433 420 432 485 614 646 686 654 454 503 565 552 350 127 81 32 0 0 61 31 0 1 12 7 4 3 1 0 0 0 0 0 0 0 0 0 0 0 0 0 0 0 0 0 0 0 0 0 0
0 0 0 0 0 0 30 23 23 36 4 0 94 158 42 0 6 2 2 0 1 0 0 0 48 310 1014 735 533 466 271 172 180 156 113 222 336 490 541 591 507 470 435 385 371 431 413 265 160 126 95 23 2 0 0 0 0 3 3 0 0 0 0 0 0 0 0 0 0 0 0 0 0 0 0 0 0 0 0 0 0 0 0 0 0 0
0 0 0 0 0 0 21 15 4 0 39 56 7 8 0 11 0 0 43 55 2 15 308 154 669 992 796 796 647 566 348 240 138 93 110 43 221 307 440 520 671 724 644 406 358 328 292 189 237 140 10 0 0 1 0 0 0 0 4 1 2 0 0 0 0 0 0 0 0 0 0 0 0 0 0 0 0 0 0 0 0 0 0 0 0 0
0 0 0 0 0 7 0 0 0 1 127 45 31 0 0 0 6 18 39 26 63 134 141 23 186 550 714 705 562 433 286 172 106 57 52 48 25 143 231 339 500 627 556 534 277 164 250 250 101 5 2 0 0 0 0 4 0 0 0 0 0 0 0 0 0 0 0 0 0 0 0 0 0 0 0 0 0 0 0 0 0 0 0 0 0 0
0 0 0 0 0 0 0 2 0 58 163 306 85 62 1 176 23 0 0 0 104 141 93 78 543 703 702 538 392 208 150 82 80 54 50 14 6 5 97 280 318 293 275 190 173 202 147 24 8 25 6 0 0 0 2 0 0 0 0 0 0 0 0 0 0 0 0 0 0 0 0 0 0 0 0 0 0 0 0 0 0 0 0 0 0 0
0 0 0 0 0 0 0 5 4 1 0 39 71 657 126 460 409 412 218 171 250 143 110 216 457 713 559 315 163 141 134 41 5 14 34 38 52 34 0 204 209 218 222 266 49 46 10 20 16 20 1 2 0 0 2 6 2 0 0 0 0 0 0 0 0 0 0 0 0 0 0 0 0 0 0 0 0 0 0 0 0 0 0 0 0 0
0 0 1 0 23 0 0 3 14 2 0 69 599 434 326 122 400 460 38 2 595 347 150 313 486 607 446 250 114 58 29 61 89 92 46 74 50 42 70 167 219 206 126 55 26 63 31 65 40 5 8 30 3 0 2 5 6 8 0 0 0 1 0 0 0 0 0 0 0 0 0 0 0 0 0 0 0 0 0 0 0 0 0 0 0 0
3 0 0 0 0 0 0 0 15 3 0 298 544 335 184 174 111 479 5 102 866 435 227 305 498 591 395 272 99 62 128 244 497 273 74 80 85 65 57 167 174 159 106 35 18 37 52 29 27 16 30 16 0 1 9 1 0 0 0 0 0 0 0 0 0 0 0 0 0 0 0 0 0 0 0 0 0 0 0 0 0 0 0 0 0 0
0 0 0 0 0 0 0 0 2 4 62 201 323 252 130 81 257 42 1 126 556 462 303 402 588 581 405 246 87 139 300 298 280 349 44 52 40 86 125 170 146 113 119 127 82 51 68 42 32 26 8 0 0 0 2 0 0 0 0 0 0 0 0 0 0 0 0 0 0 0 0 0 0 0 0 0 0 0 0 0 0 0 0 0 0 0
0 2 0 0 0 0 0 0 5 2 449 220 181 179 155 112 9 8 599 0 443 528 381 487 631 569 430 295 191 297 308 83 272 160 57 53 23 116 142 175 129 110 151 52 50 54 47 40 35 20 0 0 0 0 0 0 0 0 0 0 0 0 0 0 0 0 0 0 0 0 0 0 0 0 0 0 0 0 0 0 0 0 0 0 0 0
3 0 2 0 0 0 0 0 2 12 30 206 227 158 100 224 88 179 297 276 276 530 396 436 569 557 415 291 195 144 78 63 84 86 36 5 51 139 145 139 169 152 131 70 30 50 47 42 21 0 0 0 0 0 0 0 0 0 0 0 0 0 0 0 0 0 0 0 0 0 0 0 0 0 0 0 0 0 0 0 0 0 0 0 0 0
220 0 0 0 0 0 0 0 1 78 351 254 277 154 159 278 127 277 410 328 332 438 451 434 515 470 312 230 106 44 42 33 62 27 2 0 3 107 156 154 187 189 60 36 45 34 51 27 0 0 0 0 0 0 0 0 0 0 0 0 0 0 0 0 0 0 0 0 0 0 0 0 0 0 0 0 0 0 0 0 0 0 0 0 0 0
177 142 270 52 52 1 0 209 332 61 331 318 298 250 156 85 47 126 376 342 365 390 368 406 440 366 225 200 126 49 12 5 12 0 1 4 0 139 182 194 165 135 40 62 22 55 42 7 1 0 0 0 0 0 0 0 0 0 0 0 0 0 0 0 0 0 0 0 0 0 0 0 0 0 0 0 0 0 0 0 0 0 0 0 0 0
59 188 250 253 178 96 46 91 200 108 131 227 50 95 111 73 42 112 323 422 396 342 385 389 367 290 229 155 90 31 6 3 3 2 1 1 0 150 204 176 129 46 55 85 20 25 6 5 5 0 0 0 0 0 0 0 0 0 0 0 0 0 0 0 0 0 0 0 0 0 0 0 0 0 0 0 0 0 0 0 0 0 0 0 0 0
206 52 160 118 275 16 104 162 280 395 194 168 157 104 64 83 80 93 242 345 368 337 293 356 286 265 205 112 56 38 4 0 3 2 0 0 0 78 174 145 104 71 88 33 32 4 6 20 4 0 0 0 0 0 0 0 0 0 0 0 0 0 0 0 0 0 0 0 0 0 0 0 0 0 0 0 0 0 0 0 0 0 0 0 0 0
282 50 204 244 246 112 314 241 229 90 122 104 142 151 199 109 51 45 158 253 264 298 293 289 250 237 121 77 27 15 2 2 1 2 0 0 0 140 90 56 80 105 51 82 34 0 1 11 0 0 0 0 0 0 0 0 0 0 0 0 0 0 0 0 0 0 0 0 0 0 0 0 0 0 0 0 0 0 0 0 0 0 0 0 0 0
176 9 72 253 120 371 114 116 32 121 140 103 15 57 159 128 99 38 59 156 224 215 246 225 268 149 71 85 6 0 2 1 4 1 0 0 0 0 0 0 113 104 127 62 44 2 4 10 2 0 0 1 0 0 0 0 0 0 0 0 0 0 0 0 0 0 0 0 0 0 0 0 0 0 0 0 0 0 0 0 0 0 0 0 0 0
34 169 226 76 132 149 87 295 245 177 140 382 191 96 65 14 30 110 82 173 203 239 214 206 113 62 55 50 15 2 0 0 0 1 0 0 0 0 0 1 131 146 66 72 15 15 1 1 0 0 0 0 0 0 0 0 0 0 0 0 0 0 0 0 0 0 0 0 0 0 0 0 0 0 0 0 0 0 0 0 0 0 0 0 0 0
150 498 194 116 80 8 195 44 280 427 406 328 368 172 98 30 11 81 96 150 192 209 179 149 79 32 19 1 0 1 0 1 3 0 0 0 0 0 97 17 156 140 7 64 45 18 2 2 0 0 0 0 0 0 0 0 0 0 0 0 0 0 0 0 0 0 0 0 0 0 0 0 0 0 0 0 0 0 0 0 0 0 0 0 0 0
Wind_Speed
nan nan nan nan nan nan nan nan nan nan nan nan nan nan nan nan nan nan nan nan nan nan nan nan nan 38 32 29 29 27 26 24 26 26 25 29 28 27 26 28 34 31 24 28 31 31 34 29 27 24 25 22 24 16 20 16 18 18 20 19 19 18 18 18 18 18 18 18 19 18 17 18 18 19 20 21 21 21 21 22 23 23 24 25 22 22
nan nan nan nan nan nan nan nan nan nan nan nan nan nan nan nan nan nan nan nan nan nan nan nan nan 36 34 28 27 25 23 23 24 24 24 26 29 28 26 28 33 28 26 28 25 29 27 29 23 23 27 25 27 25 23 21 21 19 20 20 21 20 21 21 21 21 20 20 19 18 19 19 19 20 21 22 22 22 22 22 23 24 24 23 24 23
nan nan nan nan nan nan nan nan nan nan nan nan nan nan nan nan nan nan nan nan nan nan nan nan 32 37 32 28 26 24 24 27 20 26 23 26 26 26 26 26 26 26 29 21 24 23 25 26 25 26 25 29 31 31 27 27 28 26 25 24 23 22 23 23 23 22 22 22 21 21 21 21 22 23 23 23 25 24 23 23 23 24 24 24 24 23
nan nan nan nan nan nan nan nan nan nan nan nan nan nan nan nan nan nan nan nan nan nan nan nan 31 33 34 30 26 25 29 29 29 27 23 22 23 26 32 28 23 24 30 31 31 28 28 30 30 29 29 28 31 29 27 28 30 29 28 27 27 26 25 25 25 24 24 25 26 25 24 26 26 26 25 25 26 24 22 22 21 22 22 23 23 23
nan nan nan nan nan nan nan nan nan nan nan nan nan nan nan nan nan nan nan nan nan nan nan nan 30 32 28 29 28 26 28 27 26 29 26 21 23 26 29 25 21 25 28 24 29 31 34 32 30 29 28 30 29 27 28 29 30 30 32 30 28 27 27 26 25 24 24 25 25 25 27 27 27 26 25 24 23 22 21 21 22 22 22 22 23 23
nan nan nan nan nan nan nan nan nan nan nan nan nan nan nan nan nan nan nan nan nan nan nan nan nan nan 26 25 28 29 25 23 25 24 24 23 24 26 26 23 23 29 29 31 31 28 24 23 27 27 27 29 30 29 29 30 30 30 30 29 28 26 26 26 25 24 23 22 22 22 23 24 23 23 23 23 22 22 21 21 22 23 23 23 22 22
nan nan nan nan nan nan nan nan nan nan nan nan nan nan nan nan nan nan nan nan nan nan nan nan nan 28 26 25 26 27 24 24 23 21 22 23 23 24 24 23 26 31 32 28 31 28 24 23 23 24 28 30 31 31 31 30 30 31 30 29 28 27 26 25 24 24 22 22 22 23 22 21 21 22 23 22 21 22 22 21 22 23 23 22 23 23
nan nan nan nan nan nan nan nan nan nan nan nan nan nan nan nan nan nan nan nan nan nan nan nan nan 29 nan 24 26 26 27 26 22 21 20 21 21 21 21 21 24 29 27 24 28 28 29 25 22 27 29 30 31 31 31 30 29 30 29 28 29 27 26 25 23 23 21 21 21 22 22 22 23 24 24 23 22 22 21 21 21 22 22 23 22 22
nan nan nan nan nan nan nan nan nan nan nan nan nan nan nan nan nan nan nan nan nan nan nan nan nan nan nan 28 27 26 28 25 20 19 17 18 18 18 18 18 23 24 24 26 29 29 30 26 26 29 31 31 30 29 28 27 27 27 28 29 29 29 27 25 25 24 24 24 22 23 23 24 23 23 22 21 21 21 21 22 22 22 22 23 23 22
nan nan nan nan nan nan nan nan nan nan nan nan nan nan nan nan nan nan nan nan nan nan nan nan nan nan nan 30 26 24 22 22 17 14 15 15 15 17 17 19 22 22 23 27 30 27 27 27 26 27 30 28 26 24 24 24 25 26 27 29 29 28 26 25 25 25 26 25 23 23 23 23 23 21 21 19 20 20 20 22 22 22 nan nan nan nan
nan nan nan nan nan nan nan nan nan nan nan nan nan nan nan nan nan nan nan nan nan nan nan nan nan nan nan 26 24 23 18 19 18 17 17 15 14 17 18 21 22 22 26 30 32 27 25 24 25 25 26 25 23 22 22 22 23 24 25 26 27 27 26 26 26 26 26 25 24 23 22 22 22 22 20 20 nan nan nan nan nan nan nan nan nan nan
nan nan nan nan nan nan nan nan nan nan nan nan nan nan nan nan nan nan nan nan nan nan nan nan nan nan nan 28 nan 20 19 16 18 16 15 14 14 19 21 23 23 24 29 33 33 28 27 25 25 25 24 23 23 21 19 18 19 20 21 22 25 26 26 25 25 25 25 nan nan nan nan nan nan nan nan nan nan nan nan nan nan nan nan nan nan nan
nan nan nan nan nan nan nan nan nan nan nan nan nan nan nan nan nan nan nan nan nan nan nan nan nan nan nan nan nan nan 19 18 16 14 13 14 18 22 25 26 23 25 28 29 31 30 27 25 22 22 22 22 21 19 16 17 18 19 20 23 24 nan nan nan 24 25 25 25 25 25 25 26 nan nan nan nan nan nan nan nan nan nan nan nan nan nan
nan nan nan nan nan nan nan nan nan nan nan nan nan nan nan nan nan nan nan nan nan nan nan nan nan nan nan nan nan nan 21 20 18 15 15 17 23 28 26 22 24 25 25 25 27 27 26 24 20 19 18 18 18 17 16 18 20 20 22 23 25 nan nan nan nan nan nan 27 26 26 26 26 26 27 26 26 nan nan nan nan nan nan nan nan nan nan
nan nan nan nan nan nan nan nan nan nan nan nan nan nan nan nan nan nan nan nan nan nan nan nan nan nan nan nan 38 33 26 23 21 19 20 29 32 28 23 22 24 25 24 22 21 23 25 23 21 19 19 18 16 15 16 17 20 22 23 24 26 27 27 27 26 nan nan nan nan 27 27 27 26 27 26 27 27 nan nan nan nan nan nan nan nan nan
nan nan nan nan nan nan nan nan nan nan nan nan nan nan nan nan nan nan nan nan nan nan nan nan nan nan 38 38 35 30 27 23 22 22 29 30 24 24 22 24 24 24 22 19 20 24 29 29 26 21 20 19 17 15 16 18 19 21 23 25 27 28 28 28 28 nan nan nan 27 28 29 29 28 28 28 nan nan nan nan nan nan nan nan nan nan nan
nan nan nan nan nan nan nan nan nan nan nan nan nan nan nan nan nan nan nan nan nan nan nan nan nan nan 41 34 35 28 26 24 26 26 29 25 22 21 21 21 24 24 24 22 22 28 32 32 31 25 21 18 17 16 17 18 20 22 25 26 28 29 28 29 29 28 nan nan 29 29 29 30 31 32 nan nan nan nan nan nan nan nan nan nan nan nan
nan nan nan nan nan nan nan nan nan nan nan nan nan nan nan nan nan nan nan nan nan nan nan nan nan nan nan 34 34 32 26 28 27 27 26 23 20 20 19 20 22 23 24 25 27 31 33 32 30 27 21 19 17 19 20 22 23 24 26 nan 30 29 29 nan nan nan nan nan 30 30 31 32 nan nan nan nan nan nan nan nan nan nan nan nan nan nan
nan nan nan nan nan nan nan nan nan nan nan nan nan nan nan nan nan nan nan nan nan nan nan nan nan nan nan 36 36 30 26 26 26 26 25 22 19 19 20 22 24 25 25 26 26 29 31 32 29 25 24 22 20 20 21 21 22 24 26 28 nan nan nan nan nan nan nan 30 29 30 nan nan nan nan nan nan nan nan nan nan nan nan nan nan nan nan
nan nan nan nan nan nan nan nan nan nan nan nan nan nan nan nan nan nan nan nan nan nan nan nan nan nan nan 36 31 29 24 25 26 25 23 21 20 21 21 23 25 25 26 26 26 28 29 30 28 26 23 21 19 20 20 21 21 24 25 25 25 nan nan nan nan nan nan nan nan nan nan nan nan nan nan nan nan nan nan nan nan nan nan nan nan nan
nan nan nan nan nan nan nan nan nan nan nan nan nan nan nan nan nan nan nan nan nan nan nan nan nan nan nan 39 29 26 25 25 24 22 22 22 21 21 23 23 24 25 26 27 28 29 31 30 30 26 22 19 17 18 19 20 22 24 24 25 25 26 26 25 25 nan 26 27 28 nan nan nan nan nan nan nan nan nan nan nan nan nan nan nan nan nan
nan nan nan nan nan nan nan nan nan nan nan nan nan nan nan nan nan nan nan nan nan nan nan nan nan nan 45 39 29 25 26 24 23 23 24 23 23 24 24 23 24 25 27 29 29 30 30 29 29 28 25 22 18 18 20 22 23 25 25 26 26 26 25 26 26 nan nan 27 nan nan nan nan nan nan nan nan nan nan nan nan nan nan nan nan nan nan
nan nan nan nan nan nan nan nan nan nan nan nan nan nan nan nan nan nan nan nan nan nan nan nan nan 44 41 39 34 28 30 28 26 25 25 25 25 25 25 24 24 25 27 28 29 29 30 29 28 28 27 23 21 20 22 24 24 25 27 28 28 28 27 28 29 nan nan nan nan nan nan nan nan nan nan nan nan nan nan nan nan nan nan nan nan nan
nan nan nan nan nan nan nan nan nan nan nan nan nan nan nan nan nan nan nan nan nan nan nan nan nan 44 43 39 34 30 31 29 29 27 27 28 27 28 27 25 25 25 26 29 28 29 30 31 29 27 25 24 23 23 24 26 27 26 28 29 29 30 31 30 30 nan nan nan nan nan nan nan nan nan nan nan nan nan nan nan nan nan nan nan nan nan
nan nan nan nan nan nan nan nan nan nan nan nan nan nan nan nan nan nan nan nan nan nan nan nan nan nan 47 nan 36 32 32 30 31 29 29 30 29 29 29 27 26 27 26 28 29 29 31 31 30 28 26 25 25 25 26 29 29 29 nan 29 30 31 32 32 32 nan nan nan nan nan nan nan nan nan nan nan nan nan nan nan nan nan nan nan nan nan
nan nan nan nan nan nan nan nan nan nan nan nan nan nan nan nan nan nan nan nan nan nan nan nan nan 51 48 43 39 34 32 31 31 31 30 30 31 31 30 28 28 27 27 27 28 29 30 30 29 28 28 27 26 27 29 31 33 34 nan nan 31 32 33 34 35 nan nan nan nan nan nan nan nan nan nan nan nan nan nan nan nan nan nan nan nan nan
nan nan nan nan nan nan nan nan nan nan nan nan nan nan nan nan nan nan nan nan nan nan nan nan nan 48 46 41 39 36 32 32 33 31 31 30 30 30 30 29 28 28 28 29 28 27 29 30 30 29 29 28 27 28 30 34 36 36 nan 35 35 34 35 36 nan nan nan nan nan nan nan nan nan nan nan nan nan nan nan nan nan nan nan nan nan nan
nan nan nan nan nan nan nan nan nan nan nan nan nan nan nan nan nan nan nan nan nan nan nan nan nan nan 42 40 36 35 33 32 32 31 32 30 29 30 30 31 30 29 29 29 29 30 31 33 33 31 29 28 28 30 33 36 37 nan nan 36 36 37 37 nan nan nan nan nan nan nan nan nan nan nan nan nan nan nan nan nan nan nan nan nan nan nan
nan nan nan nan nan nan nan nan nan nan nan nan nan nan nan nan nan nan nan nan nan nan nan nan nan nan 39 36 33 32 32 31 31 32 33 35 33 32 32 31 30 29 28 29 30 31 33 33 30 29 27 27 30 33 36 nan nan 38 37 37 38 38 nan nan nan nan nan nan nan nan nan nan nan nan nan nan nan nan nan nan nan nan nan nan nan nan
nan nan nan nan nan nan nan nan nan nan nan nan nan nan nan nan nan nan nan nan nan nan nan nan nan nan nan 36 33 34 35 34 33 34 35 35 34 34 32 31 29 29 29 29 30 30 30 30 28 27 27 29 31 34 36 37 38 38 37 38 39 nan nan nan nan nan nan nan nan nan nan nan nan nan nan nan nan nan nan nan nan nan nan nan nan nan
nan nan nan nan nan nan nan nan nan nan nan nan nan nan nan nan nan nan nan nan nan nan nan nan nan nan 46 42 40 40 38 39 nan nan 34 34 35 35 33 31 31 30 29 29 28 28 30 30 29 29 29 31 33 34 36 38 38 39 39 nan nan nan nan nan nan nan nan nan nan nan nan nan nan nan nan nan nan nan nan nan nan nan nan nan nan nan
nan nan nan nan nan nan nan nan nan nan nan nan nan nan nan nan nan nan nan nan nan nan nan nan nan nan 43 42 43 41 38 35 nan nan 35 33 34 34 33 33 32 31 32 31 30 30 32 32 32 32 32 33 34 nan nan 38 38 nan nan nan nan nan nan nan nan nan nan nan nan nan nan nan nan nan nan nan nan nan nan nan nan nan nan nan nan nan
nan nan nan nan nan nan nan nan nan nan nan nan nan nan nan nan nan nan nan nan nan nan nan nan nan nan 39 41 41 37 35 34 33 nan 34 34 34 34 33 33 32 32 33 32 32 32 32 33 34 34 34 nan nan nan nan nan nan nan nan nan nan nan nan nan nan nan nan nan nan nan nan nan nan nan nan nan nan nan nan nan nan nan nan nan nan nan
nan nan nan nan nan nan nan nan nan nan nan nan nan 44 nan nan nan nan nan nan nan nan nan nan nan 38 42 37 36 36 32 29 29 31 34 36 36 34 34 33 33 32 31 31 32 32 33 32 31 31 nan nan nan nan nan nan nan nan nan nan nan nan nan nan nan nan nan nan nan nan nan nan nan nan nan nan nan nan nan nan nan nan nan nan nan nan
nan nan nan nan nan nan nan nan nan nan nan nan nan nan nan nan nan nan nan nan nan nan 39 37 37 36 34 33 32 33 33 33 32 nan 33 nan 36 35 34 34 34 33 32 32 32 31 31 31 31 32 nan nan nan nan nan nan nan nan nan nan nan nan nan nan nan nan nan nan nan nan nan nan nan nan nan nan nan nan nan nan nan nan nan nan nan nan
nan nan nan nan nan nan nan nan nan nan 36 nan nan nan nan nan nan nan nan nan nan 29 29 nan 32 34 35 38 38 38 36 35 35 nan nan nan nan 34 34 32 32 32 31 29 32 31 31 32 31 nan nan nan nan nan nan nan nan nan nan nan nan nan nan nan nan nan nan nan nan nan nan nan nan nan nan nan nan nan nan nan nan nan nan nan nan nan
nan nan nan nan nan nan nan nan nan nan 30 31 nan nan nan 30 nan nan nan nan 26 27 nan nan 36 37 38 38 40 39 38 nan nan nan nan nan nan nan nan 33 34 32 32 32 32 32 33 nan nan nan nan nan nan nan nan nan nan nan nan nan nan nan nan nan nan nan nan nan nan nan nan nan nan nan nan nan nan nan nan nan nan nan nan nan nan nan
nan nan nan nan nan nan nan nan nan nan nan nan nan 33 26 36 30 32 33 31 31 28 29 32 35 37 39 40 39 38 40 nan nan nan nan nan nan nan nan 34 34 33 32 34 nan nan nan nan nan nan nan nan nan nan nan nan nan nan nan nan nan nan nan nan nan nan nan nan nan nan nan nan nan nan nan nan nan nan nan nan nan nan nan nan nan nan
nan nan nan nan nan nan nan nan nan nan nan nan 28 31 29 32 30 31 nan nan 29 28 28 30 34 35 36 38 38 nan nan nan nan nan nan nan nan nan nan 33 33 32 32 nan nan nan nan nan nan nan nan nan nan nan nan nan nan nan nan nan nan nan nan nan nan nan nan nan nan nan nan nan nan nan nan nan nan nan nan nan nan nan nan nan nan nan
nan nan nan nan nan nan nan nan nan nan nan 30 30 29 29 31 34 30 nan 28 33 29 30 30 32 33 34 35 nan nan 31 26 21 24 nan nan nan nan nan 33 32 32 32 nan nan nan nan nan nan nan nan nan nan nan nan nan nan nan nan nan nan nan nan nan nan nan nan nan nan nan nan nan nan nan nan nan nan nan nan nan nan nan nan nan nan nan
nan nan nan nan nan nan nan nan nan nan nan 27 30 31 31 nan 29 nan nan 35 35 29 28 28 29 32 35 35 nan 27 23 33 34 35 nan nan nan nan 31 33 33 32 31 32 nan nan nan nan nan nan nan nan nan nan nan nan nan nan nan nan nan nan nan nan nan nan nan nan nan nan nan nan nan nan nan nan nan nan nan nan nan nan nan nan nan nan
nan nan nan nan nan nan nan nan nan nan 31 28 28 30 30 30 nan nan 33 nan 32 29 27 27 29 31 32 32 31 31 33 nan 35 38 nan nan nan 32 33 36 37 35 34 nan nan nan nan nan nan nan nan nan nan nan nan nan nan nan nan nan nan nan nan nan nan nan nan nan nan nan nan nan nan nan nan nan nan nan nan nan nan nan nan nan nan nan
nan nan nan nan nan nan nan nan nan nan nan 21 29 27 28 26 nan 31 30 32 32 32 31 30 29 32 32 34 33 35 nan nan nan nan nan nan nan 33 34 37 38 38 41 nan nan nan nan nan nan nan nan nan nan nan nan nan nan nan nan nan nan nan nan nan nan nan nan nan nan nan nan nan nan nan nan nan nan nan nan nan nan nan nan nan nan nan
16 nan nan nan nan nan nan nan nan nan 27 21 21 24 21 28 29 28 28 30 31 32 32 33 32 33 33 34 35 nan nan nan nan nan nan nan nan 34 36 38 39 42 nan nan nan nan nan nan nan nan nan nan nan nan nan nan nan nan nan nan nan nan nan nan nan nan nan nan nan nan nan nan nan nan nan nan nan nan nan nan nan nan nan nan nan nan
14 14 18 nan nan nan nan 21 25 nan 22 22 26 28 29 nan nan 29 30 32 30 31 30 32 33 33 31 32 34 nan nan nan nan nan nan nan nan 35 36 38 41 42 nan nan nan nan nan nan nan nan nan nan nan nan nan nan nan nan nan nan nan nan nan nan nan nan nan nan nan nan nan nan nan nan nan nan nan nan nan nan nan nan nan nan nan nan
nan 16 16 16 17 nan nan nan 20 21 20 20 nan nan 27 nan nan 26 28 29 31 30 29 30 31 29 28 31 nan nan nan nan nan nan nan nan nan 36 37 40 41 nan nan nan nan nan nan nan nan nan nan nan nan nan nan nan nan nan nan nan nan nan nan nan nan nan nan nan nan nan nan nan nan nan nan nan nan nan nan nan nan nan nan nan nan nan
15 nan 12 14 19 nan 14 17 18 22 21 18 17 22 nan nan nan nan 26 27 29 29 29 31 30 28 28 26 nan nan nan nan nan nan nan nan nan nan 37 38 36 nan nan nan nan nan nan nan nan nan nan nan nan nan nan nan nan nan nan nan nan nan nan nan nan nan nan nan nan nan nan nan nan nan nan nan nan nan nan nan nan nan nan nan nan nan
12 nan 12 12 12 11 17 18 19 nan 20 20 19 20 22 26 nan nan 27 29 29 29 30 31 29 30 29 nan nan nan nan nan nan nan nan nan nan 31 nan nan nan 34 nan nan nan nan nan nan nan nan nan nan nan nan nan nan nan nan nan nan nan nan nan nan nan nan nan nan nan nan nan nan nan nan nan nan nan nan nan nan nan nan nan nan nan nan
18 nan nan 11 10 14 16 15 nan 16 15 15 nan nan 23 27 nan nan nan 28 28 29 31 31 29 31 nan nan nan nan nan nan nan nan nan nan nan nan nan nan 33 34 36 nan nan nan nan nan nan nan nan nan nan nan nan nan nan nan nan nan nan nan nan nan nan nan nan nan nan nan nan nan nan nan nan nan nan nan nan nan nan nan nan nan nan nan
nan 9 14 nan 11 12 nan 15 14 15 16 15 13 nan nan nan nan 26 nan 26 27 28 30 30 31 nan nan nan nan nan nan nan nan nan nan nan nan nan nan nan 32 33 nan nan nan nan nan nan nan nan nan nan nan nan nan nan nan nan nan nan nan nan nan nan nan nan nan nan nan nan nan nan nan nan nan nan nan nan nan nan nan nan nan nan nan nan
12 15 12 12 nan nan 20 nan 17 19 19 22 21 19 nan nan nan nan nan 23 24 25 26 29 nan nan nan nan nan nan nan nan nan nan nan nan nan nan nan nan 32 31 nan nan nan nan nan nan nan nan nan nan nan nan nan nan nan nan nan nan nan nan nan nan nan nan nan nan nan nan nan nan nan nan nan nan nan nan nan nan nan nan nan nan nan nan
Wind_Direction
nan nan nan nan nan nan nan nan nan nan nan nan nan nan nan nan nan nan nan nan nan nan nan nan nan 246 239 240 243 246 249 255 260 260 250 250 249 255 250 246 245 242 227 227 216 229 235 242 236 233 242 242 252 250 251 242 245 244 243 247 246 242 246 245 248 248 248 251 255 258 264 268 270 269 272 272 273 274 274 275 277 277 280 284 286 287
nan nan nan nan nan nan nan nan nan nan nan nan nan nan nan nan nan nan nan nan nan nan nan nan nan 245 240 238 243 247 250 259 262 261 251 246 237 231 256 261 256 258 243 232 229 219 233 236 232 227 233 242 249 250 253 252 251 245 244 244 245 241 242 241 240 241 243 244 248 258 261 264 267 270 269 272 272 272 272 274 276 279 281 283 285 288
nan nan nan nan nan nan nan nan nan nan nan nan nan nan nan nan nan nan nan nan nan nan nan nan 244 242 239 239 240 243 245 247 250 256 257 254 248 249 253 261 270 270 260 239 223 218 216 227 236 236 234 232 243 245 245 243 244 246 245 245 246 244 243 244 243 244 248 251 251 256 260 265 268 263 265 269 271 270 272 272 276 279 283 283 284 283
nan nan nan nan nan nan nan nan nan nan nan nan nan nan nan nan nan nan nan nan nan nan nan nan 246 245 238 236 238 238 240 243 240 255 265 264 262 258 253 260 271 271 252 223 198 218 214 220 227 231 236 241 239 238 238 240 242 242 244 247 248 247 246 247 247 249 250 251 254 258 259 259 261 265 264 267 268 270 273 274 275 279 281 282 283 281
nan nan nan nan nan nan nan nan nan nan nan nan nan nan nan nan nan nan nan nan nan nan nan nan 243 244 239 239 235 236 236 240 248 253 256 259 261 259 257 262 275 276 267 249 232 213 204 207 214 223 232 237 238 234 235 237 237 236 242 245 246 245 243 242 245 246 250 255 258 262 263 261 264 267 267 267 270 273 276 279 278 278 277 276 277 277
nan nan nan nan nan nan nan nan nan nan nan nan nan nan nan nan nan nan nan nan nan nan nan nan nan nan 243 242 239 239 238 241 245 250 255 259 264 266 268 273 270 273 279 265 246 233 220 210 209 218 229 236 237 238 237 239 239 241 244 247 246 244 244 244 244 245 248 255 260 265 265 265 265 266 266 267 270 276 278 278 279 276 276 277 276 276
nan nan nan nan nan nan nan nan nan nan nan nan nan nan nan nan nan nan nan nan nan nan nan nan nan 238 246 245 242 242 242 245 240 246 257 260 264 270 271 277 276 281 287 262 233 223 225 214 221 229 235 236 237 236 236 237 238 238 238 239 241 240 240 242 245 249 252 254 257 259 261 261 264 267 266 269 270 273 278 277 277 278 276 277 280 281
nan nan nan nan nan nan nan nan nan nan nan nan nan nan nan nan nan nan nan nan nan nan nan nan nan 234 nan 245 248 245 242 241 239 245 255 258 268 273 273 281 282 286 286 248 226 233 239 235 238 241 235 229 233 235 236 235 235 240 243 242 243 242 240 240 246 250 252 257 259 261 263 263 262 265 269 271 271 271 273 276 278 281 281 280 280 281
nan nan nan nan nan nan nan nan nan nan nan nan nan nan nan nan nan nan nan nan nan nan nan nan nan nan nan 246 247 250 241 237 239 247 256 263 270 277 284 287 281 289 283 248 240 253 256 249 242 239 234 232 234 236 238 240 239 241 242 243 244 245 246 246 246 247 248 250 256 263 267 270 270 273 274 275 277 277 279 281 281 281 283 283 281 280
nan nan nan nan nan nan nan nan nan nan nan nan nan nan nan nan nan nan nan nan nan nan nan nan nan nan nan 251 250 253 245 246 246 254 261 266 274 276 280 275 272 275 267 249 249 255 250 238 231 228 234 233 233 237 242 242 240 241 241 241 243 244 244 245 247 248 250 252 254 256 264 271 274 276 278 280 282 285 286 282 283 284 nan nan nan nan
nan nan nan nan nan nan nan nan nan nan nan nan nan nan nan nan nan nan nan nan nan nan nan nan nan nan nan 250 249 254 252 253 248 247 252 263 273 277 272 268 264 262 261 249 241 241 247 244 238 225 230 235 236 232 232 233 234 236 238 240 245 245 245 245 247 249 249 249 248 252 256 263 268 267 270 275 nan nan nan nan nan nan nan nan nan nan
nan nan nan nan nan nan nan nan nan nan nan nan nan nan nan nan nan nan nan nan nan nan nan nan nan nan nan 243 nan 246 247 256 254 262 274 281 281 272 262 258 258 259 258 253 247 246 253 242 228 233 239 231 229 228 226 231 236 240 245 247 246 246 246 246 246 246 248 nan nan nan nan nan nan nan nan nan nan nan nan nan nan nan nan nan nan nan
nan nan nan nan nan nan nan nan nan nan nan nan nan nan nan nan nan nan nan nan nan nan nan nan nan nan nan nan nan nan 247 250 256 253 269 278 267 256 253 256 260 265 266 267 262 258 255 244 230 238 243 240 233 228 234 241 246 250 250 248 251 nan nan nan 248 249 251 253 255 257 260 262 nan nan nan nan nan nan nan nan nan nan nan nan nan nan
nan nan nan nan nan nan nan nan nan nan nan nan nan nan nan nan nan nan nan nan nan nan nan nan nan nan nan nan nan nan 247 239 250 250 249 254 251 250 255 259 267 264 267 274 269 267 263 255 252 254 249 247 241 241 246 250 252 253 249 252 256 nan nan nan nan nan nan 256 257 258 261 264 268 270 272 276 nan nan nan nan nan nan nan nan nan nan
nan nan nan nan nan nan nan nan nan nan nan nan nan nan nan nan nan nan nan nan nan nan nan nan nan nan nan nan 228 226 241 242 240 246 246 245 250 257 255 258 264 264 271 281 276 271 262 254 256 252 242 247 255 252 249 251 254 257 258 258 259 257 256 256 256 nan nan nan nan 261 263 264 268 271 274 276 277 nan nan nan nan nan nan nan nan nan
nan nan nan nan nan nan nan nan nan nan nan nan nan nan nan nan nan nan nan nan nan nan nan nan nan nan 231 233 232 231 233 241 247 252 251 255 257 264 263 265 267 269 272 277 270 263 258 248 249 243 239 252 260 253 244 250 253 260 264 264 263 263 262 261 261 nan nan nan 262 263 265 267 269 274 277 nan nan nan nan nan nan nan nan nan nan nan
nan nan nan nan nan nan nan nan nan nan nan nan nan nan nan nan nan nan nan nan nan nan nan nan nan nan 238 238 235 238 243 250 253 258 256 260 262 266 266 271 274 274 273 275 266 257 251 242 234 232 242 256 252 243 247 252 258 265 267 267 266 264 264 264 263 263 nan nan 264 264 266 268 271 275 nan nan nan nan nan nan nan nan nan nan nan nan
nan nan nan nan nan nan nan nan nan nan nan nan nan nan nan nan nan nan nan nan nan nan nan nan nan nan nan 240 243 246 253 257 261 266 262 265 267 269 269 273 275 275 270 269 261 252 246 242 238 239 252 259 253 255 258 260 261 264 268 nan 272 270 267 nan nan nan nan nan 265 266 268 270 nan nan nan nan nan nan nan nan nan nan nan nan nan nan
nan nan nan nan nan nan nan nan nan nan nan nan nan nan nan nan nan nan nan nan nan nan nan nan nan nan nan 243 250 257 267 271 272 272 272 274 275 273 274 275 275 274 269 268 272 265 255 250 245 249 261 259 255 261 261 262 267 270 270 272 nan nan nan nan nan nan nan 267 270 271 nan nan nan nan nan nan nan nan nan nan nan nan nan nan nan nan
nan nan nan nan nan nan nan nan nan nan nan nan nan nan nan nan nan nan nan nan nan nan nan nan nan nan nan 246 261 270 278 284 280 279 282 284 279 273 273 274 278 280 278 278 275 267 267 263 250 247 257 258 261 266 266 269 269 272 275 278 277 nan nan nan nan nan nan nan nan nan nan nan nan nan nan nan nan nan nan nan nan nan nan nan nan nan
nan nan nan nan nan nan nan nan nan nan nan nan nan nan nan nan nan nan nan nan nan nan nan nan nan nan nan 252 263 272 277 282 290 289 282 279 276 273 274 273 276 277 276 276 273 273 277 272 263 257 257 262 266 270 272 274 272 274 278 279 280 279 276 273 271 nan 274 275 276 nan nan nan nan nan nan nan nan nan nan nan nan nan nan nan nan nan
nan nan nan nan nan nan nan nan nan nan nan nan nan nan nan nan nan nan nan nan nan nan nan nan nan nan 244 247 254 261 268 274 280 278 274 277 275 271 270 275 275 270 271 271 272 274 273 274 273 269 268 273 278 275 278 277 275 276 278 279 280 278 276 276 274 nan nan 274 nan nan nan nan nan nan nan nan nan nan nan nan nan nan nan nan nan nan
nan nan nan nan nan nan nan nan nan nan nan nan nan nan nan nan nan nan nan nan nan nan nan nan nan 240 238 234 235 248 256 264 271 274 273 273 273 271 270 274 271 270 269 269 272 275 277 279 279 275 276 278 277 276 279 278 277 278 281 280 278 277 274 272 274 nan nan nan nan nan nan nan nan nan nan nan nan nan nan nan nan nan nan nan nan nan
nan nan nan nan nan nan nan nan nan nan nan nan nan nan nan nan nan nan nan nan nan nan nan nan nan 241 244 241 240 241 258 260 264 270 274 271 265 267 272 275 276 272 270 267 260 271 277 279 280 276 275 272 272 276 278 278 277 279 281 282 281 279 277 277 276 nan nan nan nan nan nan nan nan nan nan nan nan nan nan nan nan nan nan nan nan nan
nan nan nan nan nan nan nan nan nan nan nan nan nan nan nan nan nan nan nan nan nan nan nan nan nan nan 246 nan 249 248 257 264 269 267 272 269 266 268 270 271 272 275 271 270 272 274 279 282 282 278 274 273 274 276 278 280 279 279 nan 283 282 281 279 277 277 nan nan nan nan nan nan nan nan nan nan nan nan nan nan nan nan nan nan nan nan nan
nan nan nan nan nan nan nan nan nan nan nan nan nan nan nan nan nan nan nan nan nan nan nan nan nan 240 242 245 256 257 256 261 265 264 267 265 267 267 267 268 271 272 273 272 271 276 280 280 277 275 277 276 276 279 280 279 278 278 nan nan 283 283 279 277 277 nan nan nan nan nan nan nan nan nan nan nan nan nan nan nan nan nan nan nan nan nan
nan nan nan nan nan nan nan nan nan nan nan nan nan nan nan nan nan nan nan nan nan nan nan nan nan 242 244 249 258 264 261 263 264 268 270 269 268 267 268 264 260 266 269 272 273 270 271 273 272 270 273 274 276 278 277 276 277 279 nan 283 284 284 282 281 nan nan nan nan nan nan nan nan nan nan nan nan nan nan nan nan nan nan nan nan nan nan
nan nan nan nan nan nan nan nan nan nan nan nan nan nan nan nan nan nan nan nan nan nan nan nan nan nan 247 254 259 266 267 267 267 269 270 270 273 272 271 271 270 271 272 272 273 275 271 267 267 269 271 273 275 275 273 274 277 nan nan 282 284 285 285 nan nan nan nan nan nan nan nan nan nan nan nan nan nan nan nan nan nan nan nan nan nan nan
nan nan nan nan nan nan nan nan nan nan nan nan nan nan nan nan nan nan nan nan nan nan nan nan nan nan 249 259 266 272 277 280 279 279 278 276 272 270 273 276 276 276 276 276 271 267 267 267 268 270 273 274 275 276 275 nan nan 277 281 282 284 286 nan nan nan nan nan nan nan nan nan nan nan nan nan nan nan nan nan nan nan nan nan nan nan nan
nan nan nan nan nan nan nan nan nan nan nan nan nan nan nan nan nan nan nan nan nan nan nan nan nan nan nan 255 262 262 261 265 266 268 271 277 279 278 277 279 277 276 274 270 266 270 272 274 276 277 279 279 279 278 277 276 277 278 281 283 284 nan nan nan nan nan nan nan nan nan nan nan nan nan nan nan nan nan nan nan nan nan nan nan nan nan
nan nan nan nan nan nan nan nan nan nan nan nan nan nan nan nan nan nan nan nan nan nan nan nan nan nan 237 241 254 256 257 259 nan nan 277 279 281 281 279 279 279 279 277 275 274 276 276 281 284 285 285 285 283 282 278 276 277 280 280 nan nan nan nan nan nan nan nan nan nan nan nan nan nan nan nan nan nan nan nan nan nan nan nan nan nan nan
nan nan nan nan nan nan nan nan nan nan nan nan nan nan nan nan nan nan nan nan nan nan nan nan nan nan 245 249 256 260 262 269 nan nan 277 277 282 282 282 282 287 284 282 280 281 282 284 286 289 290 290 288 285 nan nan 279 281 nan nan nan nan nan nan nan nan nan nan nan nan nan nan nan nan nan nan nan nan nan nan nan nan nan nan nan nan nan
nan nan nan nan nan nan nan nan nan nan nan nan nan nan nan nan nan nan nan nan nan nan nan nan nan nan 251 258 262 265 270 272 272 nan 278 281 284 286 287 288 287 286 285 285 285 286 288 289 291 290 289 nan nan nan nan nan nan nan nan nan nan nan nan nan nan nan nan nan nan nan nan nan nan nan nan nan nan nan nan nan nan nan nan nan nan nan
nan nan nan nan nan nan nan nan nan nan nan nan nan 211 nan nan nan nan nan nan nan nan nan nan nan 241 256 261 266 269 275 281 281 280 276 275 280 282 285 286 289 292 290 291 292 292 289 290 289 287 nan nan nan nan nan nan nan nan nan nan nan nan nan nan nan nan nan nan nan nan nan nan nan nan nan nan nan nan nan nan nan nan nan nan nan nan
nan nan nan nan nan nan nan nan nan nan nan nan nan nan nan nan nan nan nan nan nan nan 231 236 241 248 256 259 262 265 262 259 263 nan 277 nan 280 283 286 288 291 294 294 293 292 289 290 292 290 288 nan nan nan nan nan nan nan nan nan nan nan nan nan nan nan nan nan nan nan nan nan nan nan nan nan nan nan nan nan nan nan nan nan nan nan nan
nan nan nan nan nan nan nan nan nan nan 219 nan nan nan nan nan nan nan nan nan nan 237 238 nan 239 241 246 248 252 257 261 264 263 nan nan nan nan 286 286 288 290 290 290 288 291 291 291 289 292 nan nan nan nan nan nan nan nan nan nan nan nan nan nan nan nan nan nan nan nan nan nan nan nan nan nan nan nan nan nan nan nan nan nan nan nan nan
nan nan nan nan nan nan nan nan nan nan 221 229 nan nan nan 228 nan nan nan nan 241 241 nan nan 244 246 248 249 253 257 261 nan nan nan nan nan nan nan nan 289 288 287 288 290 289 288 286 nan nan nan nan nan nan nan nan nan nan nan nan nan nan nan nan nan nan nan nan nan nan nan nan nan nan nan nan nan nan nan nan nan nan nan nan nan nan nan
nan nan nan nan nan nan nan nan nan nan nan nan nan 233 239 220 229 227 219 228 243 246 246 247 251 253 254 253 254 259 263 nan nan nan nan nan nan nan nan 291 292 292 290 287 nan nan nan nan nan nan nan nan nan nan nan nan nan nan nan nan nan nan nan nan nan nan nan nan nan nan nan nan nan nan nan nan nan nan nan nan nan nan nan nan nan nan
nan nan nan nan nan nan nan nan nan nan nan nan 238 240 243 229 230 228 nan nan 246 254 254 253 255 258 261 263 263 nan nan nan nan nan nan nan nan nan nan 289 290 289 287 nan nan nan nan nan nan nan nan nan nan nan nan nan nan nan nan nan nan nan nan nan nan nan nan nan nan nan nan nan nan nan nan nan nan nan nan nan nan nan nan nan nan nan
nan nan nan nan nan nan nan nan nan nan nan 230 235 239 247 233 232 229 nan 233 245 256 258 257 260 263 263 267 nan nan 267 260 261 271 nan nan nan nan nan 290 288 287 287 nan nan nan nan nan nan nan nan nan nan nan nan nan nan nan nan nan nan nan nan nan nan nan nan nan nan nan nan nan nan nan nan nan nan nan nan nan nan nan nan nan nan nan
nan nan nan nan nan nan nan nan nan nan nan 232 235 243 245 nan 231 nan nan 230 238 252 256 258 262 265 266 268 nan 265 262 240 234 262 nan nan nan nan 283 283 284 284 287 281 nan nan nan nan nan nan nan nan nan nan nan nan nan nan nan nan nan nan nan nan nan nan nan nan nan nan nan nan nan nan nan nan nan nan nan nan nan nan nan nan nan nan
nan nan nan nan nan nan nan nan nan nan 228 235 238 244 244 242 nan nan 231 nan 234 248 250 250 254 260 265 267 261 248 248 nan 251 268 nan nan nan 279 283 280 282 282 281 nan nan nan nan nan nan nan nan nan nan nan nan nan nan nan nan nan nan nan nan nan nan nan nan nan nan nan nan nan nan nan nan nan nan nan nan nan nan nan nan nan nan nan
nan nan nan nan nan nan nan nan nan nan nan 244 252 240 229 231 nan 230 234 235 236 246 250 248 248 254 256 257 254 248 nan nan nan nan nan nan nan 279 282 284 282 283 277 nan nan nan nan nan nan nan nan nan nan nan nan nan nan nan nan nan nan nan nan nan nan nan nan nan nan nan nan nan nan nan nan nan nan nan nan nan nan nan nan nan nan nan
211 nan nan nan nan nan nan nan nan nan 229 252 252 230 244 230 228 227 228 237 236 243 246 246 247 252 255 256 257 nan nan nan nan nan nan nan nan 276 280 281 281 275 nan nan nan nan nan nan nan nan nan nan nan nan nan nan nan nan nan nan nan nan nan nan nan nan nan nan nan nan nan nan nan nan nan nan nan nan nan nan nan nan nan nan nan nan
218 191 197 nan nan nan nan 219 224 nan 229 238 222 224 222 nan nan 225 222 232 240 241 242 243 249 252 255 256 258 nan nan nan nan nan nan nan nan 277 281 281 276 275 nan nan nan nan nan nan nan nan nan nan nan nan nan nan nan nan nan nan nan nan nan nan nan nan nan nan nan nan nan nan nan nan nan nan nan nan nan nan nan nan nan nan nan nan
nan 202 198 190 212 nan nan nan 208 215 222 229 nan nan 221 nan nan 223 227 234 235 239 243 242 251 256 257 259 nan nan nan nan nan nan nan nan nan 274 273 269 267 nan nan nan nan nan nan nan nan nan nan nan nan nan nan nan nan nan nan nan nan nan nan nan nan nan nan nan nan nan nan nan nan nan nan nan nan nan nan nan nan nan nan nan nan nan
209 nan 194 192 212 nan 202 216 204 211 216 222 222 222 nan nan nan nan 230 232 238 243 244 243 249 255 259 264 nan nan nan nan nan nan nan nan nan nan 271 272 273 nan nan nan nan nan nan nan nan nan nan nan nan nan nan nan nan nan nan nan nan nan nan nan nan nan nan nan nan nan nan nan nan nan nan nan nan nan nan nan nan nan nan nan nan nan
209 nan 180 187 194 181 198 206 204 nan 203 207 211 219 221 228 nan nan 230 231 237 242 243 247 250 254 256 nan nan nan nan nan nan nan nan nan nan 272 nan nan nan 274 nan nan nan nan nan nan nan nan nan nan nan nan nan nan nan nan nan nan nan nan nan nan nan nan nan nan nan nan nan nan nan nan nan nan nan nan nan nan nan nan nan nan nan nan
209 nan nan 206 184 199 201 197 nan 202 202 208 nan nan 221 226 nan nan nan 237 242 246 245 246 247 250 nan nan nan nan nan nan nan nan nan nan nan nan nan nan 274 271 269 nan nan nan nan nan nan nan nan nan nan nan nan nan nan nan nan nan nan nan nan nan nan nan nan nan nan nan nan nan nan nan nan nan nan nan nan nan nan nan nan nan nan nan
nan 185 210 nan 195 196 nan 212 219 206 212 229 232 nan nan nan nan 237 nan 244 249 251 250 250 246 nan nan nan nan nan nan nan nan nan nan nan nan nan nan nan 268 268 nan nan nan nan nan nan nan nan nan nan nan nan nan nan nan nan nan nan nan nan nan nan nan nan nan nan nan nan nan nan nan nan nan nan nan nan nan nan nan nan nan nan nan nan
193 208 211 203 nan nan 221 nan 211 208 217 227 229 244 nan nan nan nan nan 254 254 252 252 253 nan nan nan nan nan nan nan nan nan nan nan nan nan nan nan nan 270 271 nan nan nan nan nan nan nan nan nan nan nan nan nan nan nan nan nan nan nan nan nan nan nan nan nan nan nan nan nan nan nan nan nan nan nan nan nan nan nan nan nan nan nan nan